FAA A&P Mechanic (Merritt Island)

Apply Today!

Space Coast Aviation, a 2Fly Group company, is a full-service FBO that provide a variety of services to customers. We’re looking for a qualified FAA A&P Mechanic to join our team in Merritt Island (KCOI).  Position is available immediately and requires motivated, reliable and willing-to-learn individuals.

Ideal Candidates Should Posses:

  • US Resident/Citizen with legal right-to-work status
  • FAA A&P Certificate (IA preferred, but not required)
  • Two years minimum experience on General Aviation aircraft

Expected pay based on experience up to $35/hour. This position reports directly to the Director of Maintenance.

FBO Line Technician (Merritt Island)

Apply Today!

Space Coast Aviation, a 2Fly Group company, is a full-service FBO that provide a variety of services to customers. We’re looking for a Line Technician to join our team in Merritt Island (KCOI).  Position is available immediately and requires motivated, reliable and willing-to-learn individuals.

Ideal Candidates Should Posses:

  • US Resident/Citizen with legal right-to-work status

Job Duties and Responsibilities:

  • Hourly position
  • Must have flexibility with scheduling and available to work some weekends
  • Marshaling inbound and outbound aircraft
  • Ensure aircraft are secured
  • Assist with unloading and loading baggage for customers and/or crewmembers
  • Airplane Duties: refueling, towing, cleaning (interior/exterior), vacuuming, washing
  • Rental Car Duties: light maintenance, cleaning (interior/exterior), vacuuming, washing
  • Student Accommodations: light maintenance and occasional inspections

Expected pay based on experience. This position reports directly to the Line Service Supervisor.

SUBMIT YOUR RESUME

 

Verification

Airport Information

Identifier: KCOI
Non-Towered
Runway: 11 / 29
3601 X 75 ft
Surface: Asphalt

CTAF/UNICOM: 122.975
AWOS-3: 119.025
ORL APP: 132.65

Area Weather

Patrick AFB (KCOF) METAR:

KCOF 230955Z 08012KT 10SM SCT025 27/24 A2984 RMK AO2A SLP112 WND DATA ESTMD ALSTG/SLP ESTMD $

Titusville (KTIX) METAR:

KTIX 230047Z 11012KT 7SM SCT018 SCT023 BKN030 27/26 A2993 RMK LAST

Melbourne (KMLB) METAR:

KMLB 230953Z 05007KT 10SM -RA FEW039 BKN055 26/23 A2985 RMK AO2 RAB45 SLP108 P0000 T02610228

Hours of Operation

Mon: 7:00am - 8:00pm EST
Tue: 7:00am - 8:00pm EST
Wed: 7:00am - 8:00pm EST
Thu: 7:00am - 8:00pm EST
Fri: 7:00am - 8:00pm EST
Sat: 7:00am - 8:00pm EST
Sun: 7:00am - 8:00pm EST

Contact Us

Merritt Island Airport
900 Airport Road
Merritt Island, FL 32952

P: +1 (321) 453-2222